Date String (YYYY-MM-DD hh:mm:ss) UTC,Instrument flags,Ambient pressure (hPa),Sample flow (lpm),Bypass flow (lpm),Sample temperature (°C),Ambient temperature (°C),ASC tube jacket temperature (°C),LED temperature (°C),Box temperature (°C),Sample RH (%),Span deviation,Mass concentration (μg/m³),Mass concentration (μg/m³),Mass concentration (μg/m³)
DateTimeUTC,F1_M11,P_M11,Q1_M11,Q2_M11,T1_M11,T2_M11,T3_M11,T4_M11,T5_M11,U1_M11,ZSPAN_M11,X0_M11,X2_M11,X1_M11
2022-04-14 11:00:00,,0821.4,5.00,0.00,22.4,22.0,00.0,31.3,24.1,06.5,0000.0,0005.88,0002.10,0001.31
2022-04-14 11:01:00,,0821.4,5.00,0.00,22.4,21.8,00.0,31.3,24.1,06.4,0000.0,0005.83,0002.05,0001.29
2022-04-14 11:02:00,,0821.4,4.99,0.00,22.3,21.6,00.0,31.3,24.0,06.4,0000.0,0005.63,0002.00,0001.28
2022-04-14 11:03:00,,0821.4,5.02,0.00,22.3,21.4,00.0,31.3,24.0,06.6,0000.0,0005.25,0001.94,0001.28
2022-04-14 11:04:00,,0821.4,4.99,0.00,22.2,21.2,00.0,31.3,23.9,06.7,0000.0,0003.57,0001.90,0001.27
2022-04-14 11:05:00,,0821.4,5.00,0.00,22.2,21.2,00.0,31.3,23.8,06.8,0000.0,0003.49,0001.90,0001.27
2022-04-14 11:06:00,,0821.4,4.99,0.00,22.2,21.2,00.0,31.2,23.8,06.7,0000.0,0003.54,0001.91,0001.27
2022-04-14 11:07:00,,0821.4,5.00,0.00,22.1,21.1,00.0,31.2,23.8,06.7,0000.0,0003.53,0001.91,0001.27
2022-04-14 11:08:00,,0821.4,5.01,0.00,22.1,21.0,00.0,31.2,23.7,06.8,0000.0,0003.49,0001.89,0001.25
2022-04-14 11:09:00,,0821.4,5.00,0.00,22.0,21.0,00.0,31.2,23.7,06.7,0000.0,0003.66,0001.94,0001.25
2022-04-14 11:10:00,,0821.4,5.00,0.00,22.0,21.0,00.0,31.2,23.7,06.8,0000.0,0003.74,0001.98,0001.24
2022-04-14 11:11:00,,0821.4,5.01,0.00,22.0,21.0,00.0,31.1,23.7,06.9,0000.0,0003.99,0002.00,0001.23
2022-04-14 11:12:00,,0821.4,5.00,0.00,22.0,21.0,00.0,31.1,23.7,06.9,0000.0,0003.88,0002.00,0001.22
2022-04-14 11:13:00,,0821.4,4.99,0.00,22.0,21.4,00.0,31.1,23.8,06.9,0000.0,0003.90,0001.98,0001.21
2022-04-14 11:14:00,,0821.5,5.01,0.00,22.2,22.3,00.0,31.2,24.0,06.9,0000.0,0004.07,0002.00,0001.20
2022-04-14 11:15:00,,0821.7,5.01,0.00,22.3,23.1,00.0,31.2,24.3,06.8,0000.0,0004.19,0002.02,0001.20
2022-04-14 11:16:00,,0821.5,4.98,0.00,22.4,23.1,00.0,31.2,24.3,06.8,0000.0,0004.05,0001.99,0001.18
2022-04-14 11:17:00,,0821.2,5.00,0.00,22.4,22.7,00.0,31.2,24.2,06.8,0000.0,0003.93,0001.95,0001.17
2022-04-14 11:18:00,,0821.3,5.02,0.00,22.4,22.4,00.0,31.2,24.1,06.6,0000.0,0003.98,0001.98,0001.16
2022-04-14 11:19:00,,0821.4,4.99,0.00,22.3,22.2,00.0,31.2,24.1,06.6,0000.0,0003.99,0002.00,0001.18
2022-04-14 11:20:00,,0821.4,5.00,0.00,22.3,22.0,00.0,31.2,24.1,06.8,0000.0,0003.79,0001.92,0001.18
2022-04-14 11:21:00,,0821.4,5.00,0.00,22.3,21.8,00.0,31.2,24.0,06.9,0000.0,0003.62,0001.88,0001.18
2022-04-14 11:22:00,,0821.4,5.00,0.00,22.2,21.6,00.0,31.2,24.0,06.9,0000.0,0003.54,0001.95,0001.21
2022-04-14 11:23:00,,0821.4,5.00,0.00,22.2,21.5,00.0,31.2,23.9,06.9,0000.0,0003.67,0001.96,0001.22
2022-04-14 11:24:00,,0821.4,5.00,0.00,22.1,21.3,00.0,31.2,23.8,06.9,0000.0,0003.65,0001.95,0001.22
2022-04-14 11:25:00,,0821.4,5.00,0.00,22.1,21.2,00.0,31.2,23.7,07.0,0000.0,0003.92,0002.00,0001.22
2022-04-14 11:26:00,,0821.4,5.00,0.00,22.1,21.1,00.0,31.2,23.7,06.8,0000.0,0004.15,0002.07,0001.24
2022-04-14 11:27:00,,0821.4,4.98,0.00,22.0,21.1,00.0,31.2,23.7,06.7,0000.0,0004.21,0002.10,0001.27
2022-04-14 11:28:00,,0821.4,4.99,0.00,22.0,21.1,00.0,31.1,23.7,06.6,0000.0,0004.40,0002.13,0001.30
2022-04-14 11:29:00,,0821.4,5.02,0.00,22.0,21.1,00.0,31.1,23.8,06.6,0000.0,0004.49,0002.14,0001.32
2022-04-14 11:30:00,,0821.4,5.01,0.00,22.0,21.1,00.0,31.1,23.8,06.7,0000.0,0004.86,0002.19,0001.33
2022-04-14 11:31:00,,0821.5,5.00,0.00,22.0,21.1,00.0,31.1,23.8,06.7,0000.0,0005.25,0002.26,0001.35
2022-04-14 11:32:00,,0821.4,4.99,0.00,22.0,21.1,00.0,31.1,23.6,06.7,0000.0,0005.74,0002.28,0001.37
2022-04-14 11:33:00,,0821.4,5.01,0.00,22.0,21.6,00.0,31.1,23.7,06.8,0000.0,0006.25,0002.26,0001.37
2022-04-14 11:34:00,,0821.4,4.99,0.00,22.1,22.4,00.0,31.1,24.0,06.7,0000.0,0006.22,0002.29,0001.39
2022-04-14 11:35:00,,0821.4,5.00,0.00,22.3,23.0,00.0,31.2,24.2,06.7,0000.0,0006.08,0002.27,0001.41
2022-04-14 11:36:00,,0821.4,5.00,0.00,22.3,22.8,00.0,31.2,24.2,06.7,0000.0,0005.87,0002.25,0001.44
2022-04-14 11:37:00,,0821.4,4.99,0.00,22.3,22.4,00.0,31.2,24.1,06.7,0000.0,0005.60,0002.21,0001.45
2022-04-14 11:38:00,,0821.4,5.01,0.00,22.2,22.1,00.0,31.2,24.0,06.8,0000.0,0005.55,0002.21,0001.44
2022-04-14 11:39:00,,0821.5,5.00,0.00,22.2,21.8,00.0,31.2,23.9,06.8,0000.0,0005.50,0002.27,0001.45
2022-04-14 11:40:00,,0821.4,5.00,0.00,22.1,21.6,00.0,31.2,23.8,06.9,0000.0,0005.41,0002.27,0001.47
2022-04-14 11:41:00,,0821.3,5.00,0.00,22.1,21.4,00.0,31.1,23.7,07.0,0000.0,0005.22,0002.25,0001.49
2022-04-14 11:42:00,,0821.4,4.99,0.00,22.0,21.2,00.0,31.1,23.6,07.1,0000.0,0004.84,0002.23,0001.51
2022-04-14 11:43:00,,0821.4,5.00,0.00,22.0,21.1,00.0,31.1,23.6,07.2,0000.0,0004.66,0002.28,0001.53
2022-04-14 11:44:00,,0821.3,5.01,0.00,21.9,21.0,00.0,31.1,23.5,07.1,0000.0,0003.88,0002.27,0001.54
2022-04-14 11:45:00,,0821.4,5.00,0.00,21.9,20.9,00.0,31.0,23.4,07.2,0000.0,0003.73,0002.24,0001.56
2022-04-14 11:46:00,,0821.4,5.01,0.00,21.8,20.8,00.0,31.0,23.4,07.2,0000.0,0003.76,0002.27,0001.57
2022-04-14 11:47:00,,0821.4,5.00,0.00,21.8,20.8,00.0,31.0,23.4,07.3,0000.0,0003.66,0002.29,0001.59
2022-04-14 11:48:00,,0821.4,5.00,0.00,21.8,21.4,00.0,31.0,23.5,07.4,0000.0,0003.61,0002.29,0001.60
2022-04-14 11:49:00,,0821.4,5.00,0.00,22.0,22.4,00.0,31.0,23.8,07.3,0000.0,0003.71,0002.35,0001.63
2022-04-14 11:50:00,,0821.4,5.01,0.00,22.1,23.3,00.0,31.1,24.1,07.2,0000.0,0003.72,0002.34,0001.63
2022-04-14 11:51:00,,0821.4,4.99,0.00,22.3,23.4,00.0,31.1,24.3,07.2,0000.0,0003.75,0002.36,0001.64
2022-04-14 11:52:00,,0821.4,5.01,0.00,22.3,23.0,00.0,31.1,24.2,07.2,0000.0,0003.74,0002.38,0001.64
2022-04-14 11:53:00,,0821.4,5.00,0.00,22.3,22.6,00.0,31.1,24.1,07.1,0000.0,0003.99,0002.49,0001.65
2022-04-14 11:54:00,,0821.4,4.99,0.00,22.2,22.3,00.0,31.1,24.0,07.2,0000.0,0003.92,0002.48,0001.65
2022-04-14 11:55:00,,0821.4,5.01,0.00,22.2,22.1,00.0,31.1,24.0,07.2,0000.0,0004.15,0002.57,0001.67
2022-04-14 11:56:00,,0821.4,5.01,0.00,22.2,21.8,00.0,31.1,23.9,07.4,0000.0,0004.37,0002.65,0001.67
2022-04-14 11:57:00,,0821.4,5.00,0.00,22.1,21.6,00.0,31.1,23.8,07.4,0000.0,0004.55,0002.70,0001.70
2022-04-14 11:58:00,,0821.4,4.99,0.00,22.1,21.4,00.0,31.1,23.7,07.3,0000.0,0004.62,0002.74,0001.72
2022-04-14 11:59:00,,0821.4,5.00,0.00,22.0,21.3,00.0,31.1,23.7,07.3,0000.0,0004.76,0002.79,0001.74
